Home > Weather > Szczecin > Past weeks

Flag for Poland Past Weather in Szczecin, Poland — Yesterday and Last 2 Weeks

Now
77 °F

Passing clouds.


Feels Like: 79 °F
Forecast: 62 / 85 °F
Wind: 12 mph from Southeast

Location: Szczecin Airport

Current Time: Aug 25, 2016 at 1:47:49 PM

Latest Report: Aug 25, 2016 at 1:00 PM


Visibility: N/A

Pressure: 30.21 "Hg

Humidity: 54%

Dew Point: 59 °F

Location of SzczecinLocation

Past Weather in Szczecin — Graph

°F

Szczecin Temperature Yesterday

Maximum temperature yesterday: 77 °F (at 4:00 PM)
Minimum temperature yesterday: 52 °F (at 5:30 AM)
Average temperature yesterday: 65 °F

High & Low Weather Summary for the Past Weeks

 TemperatureHumidityPressure
High77 °F (Aug 13, 2:30 PM)100% (Aug 12, 2:30 AM)30.33 "Hg (Aug 12, 2:30 AM)
Low45 °F (Aug 17, 5:00 AM)41% (Aug 19, 3:00 PM)29.77 "Hg (Aug 18, 5:30 AM)
Average61 °F80%30.07 "Hg
* Reported Aug 10 12:00 PM — Aug 25 12:30 PM, Szczecin, Weather by CustomWeather, © 2016

Note: Actual official high and low records may vary slightly from our data, if they occured in-between our weather recording intervals... More about our weather records

Advertising

Szczecin Weather History for the Previous 24 Hours

Scroll right to see more
 ConditionsComfort  
Time TempWeatherWind HumidityBarometerVisibility
12:30 PM
Thu, Aug 25
75 °FSunny.15 mph54%30.24 "Hg10 mi
12:00 PM73 °FSunny.16 mph57%30.24 "Hg10 mi
11:30 AM73 °FSunny.14 mph57%30.24 "Hg10 mi
11:00 AM72 °FSunny.14 mph65%30.24 "Hg10 mi
10:30 AM72 °FPassing clouds.12 mph65%30.24 "HgN/A
10:00 AM70 °FPassing clouds.9 mph64%30.24 "HgN/A
9:30 AM68 °FPassing clouds.10 mph73%30.27 "HgN/A
9:00 AM66 °FSunny.10 mph73%30.27 "Hg10 mi
8:30 AM64 °FSunny.10 mph78%30.24 "Hg10 mi
8:00 AM63 °FSunny.9 mph83%30.24 "Hg10 mi
7:30 AM61 °FSunny.9 mph83%30.27 "Hg10 mi
7:00 AM59 °FSunny.7 mph88%30.27 "Hg10 mi
6:30 AM57 °FClear.8 mph94%30.24 "Hg10 mi
6:00 AM57 °FClear.9 mph94%30.24 "Hg10 mi
5:30 AM57 °FClear.9 mph94%30.24 "Hg10 mi
5:00 AM57 °FClear.8 mph94%30.27 "Hg10 mi
4:30 AM57 °FClear.5 mph94%30.27 "Hg10 mi
4:00 AM57 °FClear.7 mph94%30.27 "Hg10 mi
3:30 AM59 °FClear.9 mph88%30.27 "Hg10 mi
3:00 AM59 °FClear.9 mph88%30.27 "Hg10 mi
2:30 AM59 °FClear.9 mph88%30.27 "Hg10 mi
2:00 AM61 °FClear.10 mph88%30.27 "Hg10 mi
1:30 AM61 °FClear.12 mph88%30.27 "Hg10 mi
1:00 AM63 °FClear.12 mph83%30.27 "Hg10 mi
12:30 AM61 °FClear.8 mph88%30.27 "Hg10 mi
12:00 AM59 °FClear.6 mph94%30.27 "Hg10 mi
11:30 PM
Wed, Aug 24
59 °FClear.5 mph94%30.27 "Hg10 mi
11:00 PM61 °FClear.5 mph94%30.27 "Hg10 mi
10:30 PM61 °FClear.5 mph94%30.27 "Hg10 mi
10:00 PM63 °FClear.5 mph88%30.27 "Hg10 mi
9:30 PM63 °FClear.5 mph88%30.27 "Hg10 mi
9:00 PM64 °FSunny.5 mph88%30.27 "Hg10 mi
8:30 PM66 °FSunny.3 mph83%30.27 "Hg10 mi
8:00 PM70 °FSunny.5 mph73%30.27 "Hg10 mi
7:30 PM73 °FSunny.3 mph69%30.27 "Hg10 mi
7:00 PM75 °FSunny.6 mph61%30.27 "Hg10 mi
6:30 PM75 °FPassing clouds.5 mph57%30.27 "HgN/A
6:00 PM77 °FPassing clouds.5 mph54%30.27 "HgN/A
5:30 PM77 °FSunny.5 mph57%30.27 "Hg10 mi
5:00 PM75 °FSunny.6 mph54%30.27 "Hg10 mi
4:30 PM75 °FPassing clouds.6 mph57%30.30 "HgN/A
4:00 PM77 °FPassing clouds.3 mph54%30.30 "HgN/A
3:30 PM75 °FPassing clouds.3 mph57%30.30 "HgN/A
3:00 PM75 °FPassing clouds.3 mph54%30.30 "HgN/A
2:30 PM75 °FPassing clouds.2 mph54%30.30 "HgN/A
2:00 PM75 °FPassing clouds.3 mph57%30.30 "HgN/A
1:30 PM73 °FPassing clouds.5 mph61%30.30 "HgN/A
1:00 PM73 °FScattered clouds.3 mph57%30.33 "HgN/A
Weather by CustomWeather, © 2016

See weather overviewHow to use our weather pages